Theta_e
342 333 333 334 337 339 337 336 330 331 330 331 332 335 336 334 335 337 337 335 337 337 338 337 331 327 326 325 325 327 328 330 332 333 334 337 338 338 337 336 337 337 336
339 332 332 333 336 339 338 337 332 330 330 332 332 335 336 335 335 336 337 338 337 337 339 335 329 326 326 326 326 327 327 327 329 331 333 336 337 337 337 336 335 335 335
339 329 331 333 336 339 339 337 333 331 331 332 334 334 335 335 337 338 338 338 338 338 338 332 327 327 330 332 326 325 327 333 334 337 337 337 335 335 331 328 335 335 333
341 330 331 333 337 339 339 335 336 332 331 332 334 333 334 334 336 338 338 337 339 338 334 329 328 331 334 332 326 327 334 336 337 338 337 336 336 330 328 329 330 330 333
340 339 331 333 337 339 338 337 338 333 332 333 334 332 332 332 333 335 338 338 339 338 329 328 330 332 333 332 329 333 335 335 336 338 337 336 335 331 333 334 335 337 334
340 339 332 331 335 338 338 339 338 333 333 333 332 330 331 328 327 328 331 334 335 334 329 327 331 331 331 331 330 335 337 338 338 340 337 336 334 330 336 338 337 334 329
340 340 333 329 332 336 338 339 338 333 334 333 330 329 325 321 321 323 325 331 333 330 327 328 330 332 332 333 334 333 334 335 336 337 336 338 327 327 333 334 332 331 328
342 342 337 328 329 332 336 337 337 334 335 331 328 326 321 321 322 325 326 329 331 329 327 328 329 331 332 334 334 331 330 331 334 336 338 337 329 327 327 327 328 328 326
343 345 340 328 328 329 332 335 336 334 334 328 327 323 320 321 324 325 328 328 329 328 328 328 329 330 331 334 335 334 329 329 331 335 339 339 330 329 327 328 327 327 327
345 348 346 330 328 329 331 333 334 335 331 327 326 322 320 322 324 325 329 330 328 328 328 329 330 332 335 336 336 335 334 331 331 334 337 337 331 331 329 328 328 328 328
347 349 345 335 330 329 330 333 335 333 328 327 324 323 322 323 325 327 329 331 329 328 328 330 333 335 336 335 333 332 328 325 334 336 337 336 333 331 331 329 329 329 329
350 350 347 341 338 335 336 332 332 329 327 325 323 323 324 332 326 333 334 336 330 330 330 330 331 332 332 329 328 325 325 332 334 335 337 336 334 332 332 331 330 330 330
349 351 351 345 344 342 339 339 330 329 328 326 327 328 327 334 333 335 335 336 331 330 330 329 327 326 325 327 333 335 334 334 335 336 336 335 333 331 333 332 330 330 330
348 350 351 350 347 344 342 342 337 339 336 333 335 335 328 333 336 335 335 333 330 328 327 328 326 325 329 332 334 337 337 337 336 338 336 335 333 330 333 332 331 331 331
345 349 350 351 350 346 344 344 342 340 339 339 338 338 334 335 338 336 338 338 333 333 329 333 332 333 332 334 337 337 337 338 338 338 338 335 333 330 334 333 332 331 331
329 348 349 350 350 351 348 346 345 341 341 340 340 340 339 338 340 338 336 338 335 335 335 334 334 336 335 337 337 337 337 337 337 337 338 337 333 332 334 333 333 334 334
327 347 349 349 350 351 350 348 346 345 344 342 342 342 341 339 342 342 339 338 338 336 337 335 337 336 337 337 336 337 337 336 336 336 337 337 336 334 334 334 332 333 333
329 337 349 348 349 350 351 348 349 346 344 345 343 344 344 341 343 344 342 340 339 339 338 338 339 338 337 337 337 336 336 336 336 336 337 336 336 335 334 334 332 332 332
329 332 348 348 347 350 350 349 347 346 346 345 344 344 345 345 341 345 342 342 340 340 339 338 337 338 338 336 336 336 335 335 336 336 336 336 336 336 334 333 331 332 333
328 329 342 345 347 349 350 349 348 348 347 345 346 343 346 346 343 342 344 341 343 340 340 340 338 338 337 338 336 336 336 337 335 334 334 335 335 335 334 334 332 332 332
326 330 329 343 347 350 351 350 350 349 347 347 345 345 344 347 345 341 345 341 343 342 340 339 339 339 338 338 337 336 336 336 334 333 333 334 334 334 334 333 333 331 332
330 331 331 330 341 349 351 350 350 349 348 347 347 345 345 346 346 343 345 343 341 340 340 339 339 339 339 338 337 333 331 330 331 331 331 332 332 331 332 333 332 332 331
331 332 336 336 334 345 350 350 350 350 348 348 346 346 345 346 346 344 342 344 343 341 341 340 339 339 339 338 337 333 326 330 326 325 325 326 326 327 328 329 331 330 330
336 340 341 340 339 336 346 349 349 347 347 347 347 347 347 346 346 344 341 341 341 343 342 340 341 339 339 337 336 334 331 328 327 325 319 320 322 322 323 325 326 327 325
341 343 343 341 338 338 341 347 347 348 347 347 347 346 346 344 344 342 340 340 340 339 338 338 340 340 338 337 335 332 331 327 324 321 323 317 316 318 319 321 322 322 323
343 342 342 339 334 334 341 346 347 346 344 343 342 343 342 342 340 340 339 338 338 338 338 337 338 339 339 338 336 333 331 325 320 320 318 315 314 316 317 317 318 319 320
Wind_Speed
18 24 18 15 15 19 19 17 16 15 15 15 15 16 16 16 15 16 16 17 16 15 15 14 13 14 16 18 19 19 21 21 22 23 23 22 19 17 18 17 17 17 17
24 23 19 15 15 19 20 19 18 16 15 15 15 15 15 16 15 16 16 15 15 14 14 13 14 16 17 18 19 19 20 20 20 20 21 20 18 20 18 17 16 16 16
24 24 19 15 15 19 21 20 19 18 17 15 15 15 15 15 15 15 15 14 14 13 12 12 14 17 17 17 18 19 20 20 21 24 21 14 16 14 13 13 16 15 14
22 24 21 18 17 20 22 21 19 19 18 16 15 15 15 14 14 14 14 13 12 12 11 13 15 16 16 16 17 18 17 16 16 15 15 15 13 13 14 14 14 13 14
21 20 21 20 20 21 22 20 19 19 19 17 16 15 15 14 13 13 13 12 12 11 12 13 15 15 15 15 15 15 12 8 6 4 11 12 11 13 14 13 14 15 10
22 21 20 21 21 22 22 20 20 20 19 18 16 16 15 14 14 13 13 13 12 12 13 14 15 14 14 14 14 11 6 3 2 9 12 13 9 12 11 11 11 9 7
22 22 20 22 21 22 22 21 20 20 19 18 18 16 15 14 14 14 13 13 13 14 14 15 15 13 13 12 9 6 3 1 7 8 13 9 6 9 9 8 7 7 7
23 22 21 23 22 22 23 22 21 21 20 19 18 17 15 14 14 14 14 14 14 13 14 15 14 13 11 8 6 4 1 4 8 11 15 9 8 7 8 7 6 6 6
22 20 22 26 23 22 22 22 22 22 20 19 18 17 16 15 14 14 14 14 14 14 14 15 14 12 10 7 3 1 2 5 7 6 11 13 10 7 8 7 7 6 6
21 20 18 27 25 24 23 23 23 21 20 19 18 18 16 15 15 15 14 14 14 14 14 14 14 12 9 6 4 3 4 4 4 8 3 10 10 9 7 7 6 6 6
17 17 19 26 26 25 24 24 23 22 21 20 19 18 18 18 17 16 15 15 15 14 14 13 12 11 10 8 6 5 5 5 8 6 10 11 8 5 6 7 6 5 6
21 21 22 24 26 25 21 24 25 24 24 23 21 21 20 15 17 15 14 14 15 15 15 14 13 12 10 7 5 6 6 5 10 3 8 7 5 5 6 7 6 6 6
29 27 26 27 26 26 24 25 28 26 26 25 23 22 21 19 15 16 20 17 17 17 16 15 15 14 12 10 13 6 5 9 5 8 6 5 2 4 7 9 9 9 9
34 33 31 29 29 30 27 28 29 24 26 27 26 25 25 22 21 22 21 19 18 17 16 15 15 15 12 10 10 5 8 5 6 9 3 3 3 7 10 11 11 11 11
30 36 36 34 32 33 30 28 29 29 29 27 28 28 27 25 23 24 21 20 18 18 19 19 15 15 12 14 12 8 6 6 9 6 3 5 6 8 11 11 11 12 13
15 37 39 37 35 32 33 28 30 33 31 30 30 30 30 26 24 25 23 23 20 22 18 20 18 19 15 14 13 11 11 9 8 7 7 7 9 11 13 12 14 13 13
13 36 39 37 35 34 34 32 30 30 30 34 31 32 34 31 25 26 25 21 21 24 21 20 20 18 16 14 13 14 12 13 11 9 8 9 12 14 16 17 15 17 16
13 21 37 34 34 35 31 34 24 29 33 31 33 32 35 34 28 26 25 24 22 19 19 18 11 16 17 13 15 14 14 13 12 13 14 9 12 14 17 19 19 19 18
16 16 36 35 35 36 33 29 31 27 29 31 32 29 33 36 34 23 28 23 25 20 20 17 20 15 16 17 15 15 15 15 13 12 11 13 12 14 16 20 22 20 21
20 19 28 35 36 37 33 29 28 26 27 33 27 32 26 35 34 33 27 28 25 26 20 18 19 20 20 19 19 11 13 12 13 14 14 13 14 14 18 20 21 23 24
19 10 6 23 31 34 33 31 29 30 27 28 30 30 32 31 35 36 26 30 17 26 23 20 20 20 19 16 9 4 11 16 15 17 19 19 19 19 20 23 24 24 27
11 6 7 10 17 30 29 30 27 28 27 28 27 28 29 32 36 37 29 29 24 21 24 24 20 20 18 17 6 4 2 8 19 22 23 22 21 21 16 19 24 28 30
15 10 11 13 17 25 28 28 26 25 27 28 29 29 32 33 36 33 37 30 22 24 25 26 23 24 18 17 20 8 2 5 2 6 18 26 26 25 25 23 25 29 34
13 6 7 11 18 20 29 28 28 26 24 25 25 27 30 32 31 30 30 36 32 24 24 25 22 24 21 20 19 21 14 6 3 2 8 16 19 22 24 24 26 29 28
14 6 4 11 16 20 22 27 26 24 20 14 17 17 25 25 26 24 25 30 31 29 30 29 23 20 25 23 22 11 22 15 12 5 3 4 9 18 22 25 26 25 28
10 3 6 9 14 18 21 25 21 24 18 15 17 21 22 24 22 24 25 27 25 26 25 25 24 24 26 26 26 24 19 7 9 8 4 5 7 10 18 23 25 27 28
Wind_Direction
128 144 153 160 161 160 161 158 159 154 147 139 133 127 122 118 113 112 119 123 117 112 111 107 104 101 103 104 105 103 103 103 102 102 102 99 94 94 96 96 89 90 90
145 151 156 161 157 164 164 163 162 160 154 148 141 136 134 129 122 120 123 128 123 118 115 112 112 111 109 107 107 105 103 103 104 104 104 103 95 92 101 106 95 96 92
139 154 156 158 161 164 168 167 165 162 158 156 149 144 143 139 132 129 129 129 128 124 120 118 119 117 114 111 110 108 110 108 108 99 95 99 103 104 105 101 99 98 100
142 154 158 159 161 163 169 169 167 165 163 161 158 154 152 149 143 138 136 135 132 128 124 126 124 121 119 115 110 114 117 117 123 124 100 94 98 103 101 98 99 98 103
144 149 162 160 161 164 170 171 170 170 168 166 165 163 158 157 155 153 149 144 140 133 131 131 129 125 122 120 114 119 125 131 147 160 108 100 98 99 92 88 98 97 97
148 158 166 163 165 169 174 176 176 174 173 171 170 169 166 163 161 160 157 154 149 143 140 139 136 129 125 123 120 119 117 101 50 20 88 111 111 115 109 114 106 104 94
150 171 171 170 169 173 178 181 181 178 177 177 174 172 172 168 164 160 158 155 153 152 150 147 144 139 133 126 121 117 112 19 354 12 129 153 99 121 125 129 119 106 102
155 165 174 176 174 177 181 184 184 181 181 182 179 175 175 172 166 163 160 160 161 159 155 154 153 153 150 144 129 107 21 355 348 15 150 149 126 126 135 140 134 124 117
157 163 177 179 179 179 183 186 186 185 186 185 184 181 178 175 173 170 167 168 167 167 165 163 164 165 167 167 174 168 347 338 348 77 167 154 129 129 144 146 142 139 135
156 165 179 182 181 181 184 187 188 189 190 190 188 185 183 179 179 178 177 176 175 175 174 173 174 178 182 193 213 254 289 301 332 346 250 166 135 127 151 156 159 158 155
159 166 181 184 185 185 185 187 190 192 193 193 192 191 186 183 184 186 186 188 184 181 182 184 187 191 197 211 225 244 265 276 316 304 154 141 129 130 158 171 177 179 172
175 176 180 183 188 188 184 194 192 195 193 195 195 194 191 184 191 198 198 203 195 191 191 192 198 204 214 219 240 237 256 263 305 334 141 144 144 168 174 184 195 198 189
183 177 179 183 188 186 185 196 196 198 196 197 198 201 189 185 201 198 202 205 205 200 199 203 206 211 214 213 237 234 257 274 264 312 167 158 179 203 192 197 203 208 206
178 180 178 182 188 190 192 191 196 190 193 199 199 202 190 194 199 197 203 211 211 212 204 215 217 217 215 221 253 228 242 247 295 356 189 205 258 231 208 203 209 216 215
179 176 178 180 187 191 195 192 190 192 194 197 198 201 200 196 201 196 204 201 209 211 210 216 213 221 211 230 237 253 247 261 276 315 320 232 259 226 218 214 218 221 222
229 174 176 179 186 192 198 199 192 192 197 196 199 201 207 201 203 196 207 193 201 203 215 209 214 219 209 221 227 229 233 239 243 254 268 251 225 226 219 219 228 220 222
239 168 172 177 186 191 200 207 199 196 197 195 200 203 206 204 209 196 205 211 205 204 205 212 215 216 209 216 223 224 222 236 236 238 243 251 241 226 224 232 223 222 220
226 182 173 175 185 191 197 205 209 202 201 198 199 206 206 206 208 208 201 211 209 206 212 212 225 216 213 221 221 224 233 228 237 239 234 248 243 232 232 228 226 229 229
220 211 173 181 183 191 196 199 209 205 206 206 203 205 206 202 206 216 206 216 209 209 210 218 225 230 217 222 227 221 228 229 229 237 243 244 254 237 245 239 234 231 233
226 209 184 187 186 191 189 196 204 211 206 206 209 206 206 204 202 210 214 213 211 200 195 197 208 227 218 223 221 214 224 220 227 231 242 251 254 247 244 244 237 234 236
240 162 181 184 192 184 184 190 198 207 205 205 210 204 206 204 204 207 211 216 219 194 197 210 215 229 222 228 201 202 212 218 229 227 233 235 229 237 237 241 238 237 227
169 161 212 235 191 193 192 193 198 202 206 209 207 205 206 205 200 205 208 212 215 209 212 208 214 221 231 226 180 138 264 267 251 243 237 241 244 242 237 238 243 240 233
158 186 208 224 223 202 197 197 200 207 206 202 203 207 207 206 200 204 211 203 206 209 208 211 214 219 216 208 208 178 144 229 184 238 243 247 247 248 247 243 232 225 231
141 159 211 232 237 228 208 197 198 208 203 203 199 201 197 197 196 201 207 213 215 209 206 212 218 221 219 205 212 218 223 184 206 280 246 250 251 253 251 247 241 236 231
115 128 217 239 238 233 214 202 204 208 194 187 190 175 167 179 195 199 208 208 215 222 224 224 220 221 226 223 213 198 226 232 227 218 261 259 269 256 252 248 246 243 236
107 127 223 225 219 218 206 196 196 183 182 201 205 200 193 197 197 201 204 207 209 212 218 220 222 229 226 229 234 231 221 195 203 202 228 226 240 266 258 253 247 244 238